Location: Newark
(52.3500°N, 175.9667°E)
Time: 18:48:57
(UTC+00:00)

N. Korean satellite - Pass Details

Date: 20 November 2019
Orbit: 455 x 507 km, 97.2° (Epoch: 13 December)

Event Time Altitude Azimuth Distance (km) Brightness Sun altitude
Rises 05:20:12 0° 173° (S) 2,569 10.4 -9.3°
Reaches altitude 10° 05:22:16 10° 176° (S) 1,698 9.5 -9.6°
Maximum altitude 05:25:54 64° 258° (WSW) 561 7.1 -10.2°
Drops below altitude 10° 05:29:37 10° 341° (NNW) 1,732 9.4 -10.7°
Sets 05:31:45 0° 345° (NNW) 2,625 10.3 -11.0°
